カタログに戻る

FLOCK 4G 26

運用中科学SSO
NORAD 62633·PAYLOAD·🇺🇸 United States

打ち上げ Jan 14, 2025 から Vandenberg Space Force Base

Loading…

次のパス (今後24時間)

TLE

最新Source: CelesTrak SupGP

元期: Sep 14, 2026, 14:44 UTC

1 62633C 25009AA  26257.61417824  .00010759  00000+0  35819-3 0  2578
2 62633  97.3969 339.2962 0002845  13.5394 221.1889 15.31180800    12

AllMySatでFLOCK 4G 26をリアルタイム追跡

Download on the App Store